Valley City, ND

10:42 PM CDT on May 26, 2018 (GMT -0500)
Valley City

Weather History for KBAC - January, 2013

Change the Weather History Date:

Thursday, January 3, 2013

  Actual Average (KJMS) Record (KJMS)
Temperature  
Mean Temperature 13 °F -  
Max Temperature 23 °F 15 °F 47 °F (2007)
Min Temperature 3 °F -2 °F -32 °F (1919)
Degree Days  
Heating Degree Days 52    
Moisture  
Dew Point 11 °F    
Average Humidity 83    
Maximum Humidity 93    
Minimum Humidity 68    
Precipitation  
Precipitation 0.00 in - - ()
Sea Level Pressure  
Sea Level Pressure 30.10 in    
Wind  
Wind Speed 13 mph (West)    
Max Wind Speed 23 mph    
Max Gust Speed 29 mph    
Visibility 10 miles    
Events Snow    
Averages and records for this station are not official NWS values.
T = Trace of Precipitation, MM = Missing Value Source: NWS Daily Summary

Daily Weather History Graph

Daily Weather History Graph

Search for Another Location

Airport or City:

Astronomy

Jan. 03, 2013 Rise Set
Actual Time 8:17 AM CST 4:56 PM CST
Civil Twilight 7:42 AM CST 5:31 PM CST
Nautical Twilight 7:04 AM CST 6:09 PM CST
Astronomical Twilight 6:27 AM CST 6:46 PM CST
Moon No Moon Rise 11:04 AM CST (1/3)
Length of Visible Light 9h 48m
Length of Day
8h 38m
Waning Gibbous, 65% of the Moon is Illuminated
Jan 3
Waning Gibbous
Jan 4
Last Quarter
Jan 11
New
Jan 18
First Quarter
Jan 26
Full

Hourly Weather History & Observations

Time (CST) Temp. Windchill Dew Point Humidity Pressure Visibility Wind Dir Wind Speed Gust Speed Precip Events Conditions
12:15 AM 5.0 °F -13.6 °F 1.4 °F 85% 30.24 in 10.0 mi NW 16.1 mph - N/A   Clear
12:35 AM 5.0 °F -13.0 °F 1.4 °F 85% 30.23 in 10.0 mi NW 15.0 mph - N/A   Clear
12:55 AM 5.0 °F -12.3 °F -0.4 °F 78% 30.24 in 10.0 mi NW 13.8 mph - N/A   Partly Cloudy
1:15 AM 5.0 °F -13.0 °F -0.4 °F 78% 30.23 in 10.0 mi NW 15.0 mph - N/A   Partly Cloudy
1:35 AM 5.0 °F -13.0 °F -0.4 °F 78% 30.23 in 10.0 mi WNW 15.0 mph - N/A   Clear
1:55 AM 3.2 °F -13.1 °F -0.4 °F 85% 30.22 in 10.0 mi WNW 11.5 mph - N/A   Partly Cloudy
2:15 AM 6.8 °F -7.8 °F 1.4 °F 79% 30.22 in 10.0 mi NW 10.4 mph - N/A Snow Light Snow
2:35 AM 6.8 °F -6.9 °F 3.2 °F 85% 30.23 in 10.0 mi NW 9.2 mph - N/A Snow Light Snow
2:55 AM 6.8 °F -6.9 °F 3.2 °F 85% 30.24 in 10.0 mi NW 9.2 mph - N/A   Overcast
3:15 AM 8.6 °F -5.5 °F 5.0 °F 85% 30.24 in 10.0 mi NW 10.4 mph - N/A Snow Light Snow
3:35 AM 8.6 °F -3.7 °F 5.0 °F 85% 30.24 in 10.0 mi WNW 8.1 mph - N/A Snow Light Snow
3:55 AM 8.6 °F -1.3 °F 6.8 °F 92% 30.24 in 10.0 mi WNW 5.8 mph - N/A Snow Light Snow
4:15 AM 8.6 °F -2.6 °F 6.8 °F 92% 30.24 in 10.0 mi West 6.9 mph - N/A Snow Light Snow
4:35 AM 10.4 °F 2.2 °F 6.8 °F 85% 30.23 in 10.0 mi WNW 4.6 mph - N/A   Overcast
4:55 AM 10.4 °F -1.5 °F 6.8 °F 85% 30.23 in 10.0 mi NW 8.1 mph - N/A   Overcast
5:15 AM 10.4 °F -1.5 °F 6.8 °F 85% 30.23 in 10.0 mi NW 8.1 mph - N/A   Overcast
5:35 AM 10.4 °F -0.4 °F 8.6 °F 92% 30.23 in 10.0 mi WNW 6.9 mph - N/A Snow Light Snow
5:55 AM 12.2 °F -1.0 °F 8.6 °F 85% 30.23 in 10.0 mi WNW 10.4 mph - N/A   Overcast
6:15 AM 12.2 °F 0.7 °F 8.6 °F 85% 30.22 in 10.0 mi WNW 8.1 mph - N/A   Overcast
6:35 AM 10.4 °F -0.4 °F 8.6 °F 92% 30.22 in 10.0 mi West 6.9 mph - N/A Snow Light Snow
6:55 AM 10.4 °F -1.5 °F 6.8 °F 85% 30.22 in 10.0 mi West 8.1 mph - N/A   Overcast
7:15 AM 10.4 °F -1.5 °F 8.6 °F 92% 30.21 in 10.0 mi West 8.1 mph - N/A Snow Light Snow
7:35 AM 12.2 °F 1.7 °F 8.6 °F 85% 30.20 in 10.0 mi WSW 6.9 mph - N/A   Overcast
7:55 AM 14.0 °F 3.9 °F 10.4 °F 86% 30.20 in 10.0 mi West 6.9 mph - N/A   Overcast
8:15 AM 14.0 °F 3.9 °F 10.4 °F 86% 30.19 in 10.0 mi WSW 6.9 mph - N/A   Overcast
8:35 AM 14.0 °F 3.9 °F 10.4 °F 86% 30.19 in 10.0 mi West 6.9 mph - N/A   Overcast
8:55 AM 14.0 °F 1.2 °F 10.4 °F 86% 30.18 in 10.0 mi West 10.4 mph - N/A   Overcast
9:15 AM 15.8 °F 2.7 °F 10.4 °F 79% 30.18 in 10.0 mi WSW 11.5 mph - N/A   Overcast
9:35 AM 15.8 °F 3.4 °F 12.2 °F 86% 30.19 in 10.0 mi West 10.4 mph - N/A   Overcast
9:55 AM 15.8 °F 1.4 °F 12.2 °F 86% 30.17 in 10.0 mi WSW 13.8 mph - N/A   Overcast
10:35 AM 15.8 °F 1.4 °F 14.0 °F 93% 30.18 in 10.0 mi WSW 13.8 mph - N/A   Overcast
10:55 AM 17.6 °F 2.7 °F 14.0 °F 86% 30.17 in 10.0 mi WSW 16.1 mph - N/A   Overcast
11:15 AM 17.6 °F 0.9 °F 14.0 °F 86% 30.16 in 10.0 mi West 20.7 mph 24.2 mph N/A   Overcast
11:35 AM 17.6 °F 1.3 °F 14.0 °F 86% 30.15 in 10.0 mi West 19.6 mph - N/A Snow Light Snow
11:55 AM 17.6 °F 1.3 °F 14.0 °F 86% 30.14 in 10.0 mi West 19.6 mph - N/A Snow Light Snow
12:15 PM 17.6 °F 3.2 °F 14.0 °F 86% 30.12 in 10.0 mi WSW 15.0 mph - N/A Snow Light Snow
12:35 PM 17.6 °F 1.7 °F 15.8 °F 93% 30.11 in 10.0 mi West 18.4 mph 25.3 mph N/A   Partly Cloudy
12:55 PM 19.4 °F 3.6 °F 15.8 °F 86% 30.10 in 10.0 mi WSW 19.6 mph - N/A Snow Light Snow
1:15 PM 19.4 °F 4.5 °F 15.8 °F 86% 30.08 in 10.0 mi WSW 17.3 mph - N/A   Clear
1:35 PM 21.2 °F 6.8 °F 17.6 °F 86% 30.07 in 10.0 mi SW 17.3 mph - N/A   Clear
1:55 PM 21.2 °F 6.8 °F 17.6 °F 86% 30.07 in 10.0 mi WSW 17.3 mph 24.2 mph N/A   Clear
2:15 PM 21.2 °F 7.3 °F 17.6 °F 86% 30.06 in 10.0 mi WSW 16.1 mph - N/A   Clear
2:35 PM 23.0 °F 9.6 °F 17.6 °F 80% 30.05 in 10.0 mi WSW 16.1 mph - N/A   Clear
2:55 PM 23.0 °F 9.6 °F 17.6 °F 80% 30.05 in 10.0 mi WSW 16.1 mph - N/A   Clear
3:15 PM 23.0 °F 11.1 °F 17.6 °F 80% 30.04 in 10.0 mi WSW 12.7 mph 20.7 mph N/A   Clear
3:55 PM 23.0 °F 11.1 °F 17.6 °F 80% 30.04 in 10.0 mi SW 12.7 mph - N/A   Clear
4:15 PM 23.0 °F 10.1 °F 17.6 °F 80% 30.03 in 10.0 mi SW 15.0 mph - N/A   Clear
4:35 PM 21.2 °F 8.9 °F 17.6 °F 86% 30.03 in 10.0 mi SW 12.7 mph - N/A   Clear
4:55 PM 19.4 °F 7.2 °F 15.8 °F 86% 30.02 in 10.0 mi SSW 11.5 mph - N/A   Clear
5:15 PM 19.4 °F 5.5 °F 15.8 °F 86% 30.02 in 10.0 mi SW 15.0 mph 20.7 mph N/A Snow Light Snow
5:35 PM 19.4 °F 3.6 °F 15.8 °F 86% 30.00 in 10.0 mi SW 19.6 mph 23.0 mph N/A Snow Light Snow
5:55 PM 21.2 °F 5.6 °F 15.8 °F 80% 29.99 in 10.0 mi SW 20.7 mph - N/A Snow Light Snow
6:15 PM 19.4 °F 3.6 °F 15.8 °F 86% 29.98 in 10.0 mi SW 19.6 mph - N/A Snow Light Snow
6:35 PM 19.4 °F 4.1 °F 15.8 °F 86% 29.97 in 10.0 mi SSW 18.4 mph - N/A Snow Light Snow
6:55 PM 19.4 °F 3.6 °F 15.8 °F 86% 29.96 in 10.0 mi SW 19.6 mph 24.2 mph N/A Snow Light Snow
7:15 PM 19.4 °F 5.0 °F 14.0 °F 80% 29.96 in 10.0 mi SW 16.1 mph 21.9 mph N/A   Clear
7:35 PM 19.4 °F 6.0 °F 14.0 °F 80% 29.96 in 10.0 mi SW 13.8 mph - N/A   Clear
7:55 PM 19.4 °F 5.5 °F 14.0 °F 80% 29.96 in 10.0 mi WSW 15.0 mph 20.7 mph N/A   Clear
8:15 PM 19.4 °F 3.6 °F 14.0 °F 80% 29.95 in 10.0 mi WSW 19.6 mph 24.2 mph N/A Snow Light Snow
8:35 PM 19.4 °F 3.6 °F 14.0 °F 80% 29.93 in 10.0 mi WSW 19.6 mph - N/A Snow Light Snow
8:55 PM 21.2 °F 4.9 °F 12.2 °F 68% 29.93 in 10.0 mi WSW 23.0 mph - N/A Snow Light Snow
9:15 PM 23.0 °F 7.6 °F 14.0 °F 68% 29.93 in 10.0 mi West 21.9 mph 28.8 mph N/A Snow Light Snow
9:35 PM 19.4 °F 3.6 °F 14.0 °F 80% 29.93 in 10.0 mi West 19.6 mph 26.5 mph N/A Snow Light Snow
9:55 PM 21.2 °F 5.6 °F 14.0 °F 74% 29.93 in 10.0 mi West 20.7 mph 26.5 mph N/A Snow Light Snow
10:15 PM 21.2 °F 6.0 °F 14.0 °F 74% 29.92 in 10.0 mi West 19.6 mph - N/A   Clear
10:35 PM 21.2 °F 8.3 °F 14.0 °F 74% 29.95 in 10.0 mi West 13.8 mph - N/A Snow Light Snow
10:55 PM 19.4 °F 7.9 °F 12.2 °F 74% 29.95 in 10.0 mi West 10.4 mph - N/A   Clear
11:15 PM 17.6 °F 5.0 °F 12.2 °F 79% 29.95 in 10.0 mi West 11.5 mph - N/A   Clear
11:35 PM 21.2 °F 5.6 °F 12.2 °F 68% 29.95 in 10.0 mi West 20.7 mph - N/A   Clear
11:55 PM 23.0 °F 8.3 °F 14.0 °F 68% 29.95 in 10.0 mi West 19.6 mph - N/A Snow Light Snow